238P/Read (2016)

Japanese version
Home page
Updated on February 7, 2017

---------------------------------------------------------------------

* Profile

* Pictures

* Orbital Elements

Epoch 2016 Oct. 19.0 TT = JDT 2457680.5
T 2016 Oct. 22.62665 TT                                 MPC
q   2.3661503            (2000.0)            P               Q
n   0.17501629     Peri.  324.94316     +0.95822552     -0.28548947
a   3.1653159      Node    51.65429     +0.26719722     +0.87195545
e   0.2524758      Incl.    1.26465     +0.10202696     +0.39773037
P   5.63
From 130 observations 2005 Oct. 23-2011 Dec. 31, mean residual 0".5.

* Magnitudes Graph

        m1 = 8.0 + 5 log d + 30 log r

---------------------------------------------------------------------

The orbital elements are published on M.P.E.C. 2014-R70.
The magnitudes graphs are made with Comet for Windows.

---------------------------------------------------------------------

Copyright(C) Seiichi Yoshida (comet@aerith.net). All rights reserved.